Noorvik, AK

2:46 AM AKDT on October 01, 2016 (GMT -0800)
Baker Memorial

Weather History for PAIK - November, 2013

Change the Weather History Date:

Friday, November 1, 2013

  Actual Average (PASK) Record (PASK)
Temperature  
Mean Temperature 14 °F -  
Max Temperature 17 °F 15 °F 33 °F (2003)
Min Temperature 8 °F 8 °F -7 °F (2001)
Degree Days  
Heating Degree Days 52    
Moisture  
Dew Point 13 °F    
Average Humidity 92    
Maximum Humidity 100    
Minimum Humidity 86    
Precipitation  
Precipitation 0.00 in - - ()
Sea Level Pressure  
Sea Level Pressure 30.08 in    
Wind  
Wind Speed 3 mph (East)    
Max Wind Speed 10 mph    
Max Gust Speed 16 mph    
Visibility 10 miles    
Events Snow    
Averages and records for this station are not official NWS values.
T = Trace of Precipitation, MM = Missing Value Source: NWS Daily Summary

Daily Weather History Graph

Daily Weather History Graph

Search for Another Location

Airport or City:

Trip Planner

Search our weather history database for the weather conditions in past years. The results will help you decide how hot, cold, wet, or windy it might be!

Date:

Astronomy

Nov. 01, 2013 Rise Set
Actual Time 10:46 AM AKDT 6:03 PM AKDT
Civil Twilight 9:44 AM AKDT 7:04 PM AKDT
Nautical Twilight 8:40 AM AKDT 8:08 PM AKDT
Astronomical Twilight 7:38 AM AKDT 9:10 PM AKDT
Moon 8:08 AM AKDT 5:36 PM AKDT
Length of Visible Light 9h 20m
Length of Day
7h 16m
Waning Crescent, 4% of the Moon is Illuminated
Nov 1
Waning Crescent
Nov 3
New
Nov 9
First Quarter
Nov 17
Full
Nov 25
Last Quarter

Hourly Weather History & Observations

Time (AKDT) Temp. Windchill Dew Point Humidity Pressure Visibility Wind Dir Wind Speed Gust Speed Precip Events Conditions
12:01 AM 12.0 °F 5.9 °F 10.0 °F 92% 29.96 in 10.0 mi NE 3.5 mph - N/A   Clear
1:01 AM 10.9 °F - 9.0 °F 92% 29.98 in 10.0 mi Calm Calm - N/A   Clear
2:01 AM 9.0 °F - 7.0 °F 92% 30.01 in 10.0 mi Calm Calm - N/A   Clear
3:01 AM 10.0 °F - 7.0 °F 87% 30.03 in 10.0 mi Calm Calm - N/A   Clear
4:01 AM 9.0 °F -3.2 °F 7.0 °F 92% 30.04 in 10.0 mi NNW 8.1 mph - N/A   Clear
5:01 AM 8.1 °F - 5.0 °F 87% 30.06 in 10.0 mi Calm Calm - N/A   Clear
6:01 AM 9.0 °F - 7.0 °F 92% 30.08 in 10.0 mi Calm Calm - N/A   Mostly Cloudy
7:01 AM 12.0 °F 1.5 °F 10.0 °F 92% 30.09 in 10.0 mi NNW 6.9 mph - N/A   Overcast
8:01 AM 14.0 °F - 12.0 °F 92% 30.11 in 10.0 mi Calm Calm - N/A   Overcast
9:01 AM 14.0 °F 6.5 °F 12.0 °F 92% 30.12 in 10.0 mi NE 4.6 mph - N/A   Overcast
9:19 AM 14.0 °F - 12.2 °F 93% 29.99 in 10.0 mi Calm Calm - N/A   Overcast
9:47 AM 14.0 °F - 12.2 °F 93% 30.01 in 10.0 mi Calm Calm - N/A   Overcast
10:01 AM 15.1 °F - 12.9 °F 91% 30.14 in 10.0 mi Calm Calm - N/A   Overcast
11:01 AM 14.0 °F - 12.2 °F 93% 30.02 in 10.0 mi Calm Calm - N/A   Overcast
11:28 AM 14.0 °F 8.2 °F 12.2 °F 93% 30.02 in 10.0 mi East 3.5 mph - N/A   Overcast
11:40 AM 15.8 °F 10.2 °F 12.2 °F 86% 30.02 in 10.0 mi East 3.5 mph - N/A   Overcast
11:47 AM 15.8 °F 8.6 °F 12.2 °F 86% 30.02 in 10.0 mi East 4.6 mph - N/A   Overcast
12:01 PM 15.1 °F - 14.0 °F 95% 30.16 in 9.0 mi Calm Calm - 0.00 in   Overcast
12:46 PM 17.6 °F 9.3 °F 15.8 °F 93% 30.03 in 9.0 mi East 5.8 mph - 0.00 in Snow Light Snow
1:01 PM 15.8 °F - 15.8 °F 100% 30.03 in 9.0 mi Calm Calm - 0.00 in Snow Light Snow
1:10 PM 17.6 °F 9.3 °F 15.8 °F 93% 30.04 in 9.0 mi ESE 5.8 mph - 0.00 in Snow Light Snow
2:01 PM 18.0 °F 9.8 °F 16.0 °F 92% 30.18 in 9.0 mi East 5.8 mph - 0.00 in Snow Light Snow
3:01 PM 19.0 °F 11.1 °F 17.1 °F 92% 30.19 in 10.0 mi ESE 5.8 mph - 0.00 in   Overcast
3:12 PM 17.6 °F 9.3 °F 15.8 °F 93% 30.05 in 10.0 mi East 5.8 mph - N/A   Overcast
3:22 PM 17.6 °F 10.7 °F 15.8 °F 93% 30.05 in 10.0 mi East 4.6 mph - N/A   Mostly Cloudy
3:29 PM 17.6 °F 10.7 °F 15.8 °F 93% 30.05 in 10.0 mi East 4.6 mph - N/A   Overcast
3:36 PM 17.6 °F 9.3 °F 15.8 °F 93% 30.05 in 10.0 mi East 5.8 mph - N/A   Overcast
4:01 PM 17.1 °F 10.0 °F 16.0 °F 96% 30.19 in 10.0 mi Variable 4.6 mph - 0.00 in Snow Light Snow
5:01 PM 18.0 °F 9.8 °F 16.0 °F 92% 30.17 in 9.0 mi Variable 5.8 mph - 0.00 in Snow Light Snow
6:01 PM 18.0 °F 6.9 °F 16.0 °F 92% 30.17 in 9.0 mi East 9.2 mph - 0.00 in Snow Light Snow
7:01 PM 17.1 °F 5.8 °F 15.1 °F 92% 30.17 in 9.0 mi East 9.2 mph - 0.00 in Snow Light Snow
7:15 PM 17.6 °F 8.2 °F 15.8 °F 93% 30.04 in 9.0 mi East 6.9 mph - 0.00 in Snow Light Snow
8:01 PM 17.1 °F 7.6 °F 15.1 °F 92% 30.17 in 8.0 mi East 6.9 mph - 0.00 in Snow Light Snow
9:01 PM 17.1 °F 5.8 °F 15.1 °F 92% 30.17 in 9.0 mi East 9.2 mph 16.1 mph 0.00 in Snow Light Snow
10:01 PM 17.6 °F 8.2 °F 15.8 °F 93% 30.02 in 9.0 mi East 6.9 mph - 0.00 in Snow Light Snow
10:07 PM 17.1 °F 10.0 °F 15.1 °F 92% 30.16 in 9.0 mi ESE 4.6 mph - 0.00 in Snow Light Snow
10:53 PM 17.6 °F 5.7 °F 15.8 °F 93% 30.02 in 10.0 mi ESE 10.4 mph - 0.00 in   Overcast
11:01 PM 17.1 °F 5.8 °F 15.1 °F 92% 30.15 in 10.0 mi East 9.2 mph - 0.00 in   Overcast